This is the latest recevied weather packets stored in our database for station/object SR9NCI. If no packets are shown the sender has not sent any weather packets the latest 1 day(s).
| Time | Temp. | Humidity | Pressure | Rain* | Wind** | Luminosity | Snow |
|---|---|---|---|---|---|---|---|
| 1777972366 | 25.56° C | - | 0 hPa | - | 7.15 m/s, 155° | - | - |
| 1777972124 | 25.56° C | - | 0 hPa | - | 8.05 m/s, 163° | - | - |
| 1777971883 | 25.56° C | - | 0 hPa | - | 7.15 m/s, 147° | - | - |
| 1777971641 | 25.56° C | - | 0 hPa | - | 7.6 m/s, 146° | - | - |
| 1777971400 | 25.56° C | - | 0 hPa | - | 5.81 m/s, 155° | - | - |
| 1777971157 | 25° C | - | 0 hPa | - | 6.71 m/s, 150° | - | - |
| 1777970916 | 25° C | - | 0 hPa | - | 7.15 m/s, 155° | - | - |
| 1777970675 | 25° C | - | 0 hPa | - | 5.36 m/s, 159° | - | - |
| 1777970433 | 24.44° C | - | 0 hPa | - | 4.92 m/s, 150° | - | - |
| 1777970184 | 24.44° C | - | 0 hPa | - | 5.36 m/s, 153° | - | - |
| 1777969942 | 24.44° C | - | 0 hPa | - | 8.05 m/s, 167° | - | - |
| 1777969701 | 25° C | - | 0 hPa | - | 4.92 m/s, 146° | - | - |
| 1777969460 | 24.44° C | - | 0 hPa | - | 6.26 m/s, 149° | - | - |
| 1777969218 | 23.89° C | - | 0 hPa | - | 6.71 m/s, 137° | - | - |
| 1777968976 | 24.44° C | - | 0 hPa | - | 6.26 m/s, 136° | - | - |
| 1777968735 | 24.44° C | - | 0 hPa | - | 6.71 m/s, 160° | - | - |
| 1777968494 | 23.89° C | - | 0 hPa | - | 7.15 m/s, 140° | - | - |
| 1777968253 | 23.89° C | - | 0 hPa | - | 6.26 m/s, 167° | - | - |
| 1777968010 | 23.89° C | - | 0 hPa | - | 7.15 m/s, 155° | - | - |
| 1777967762 | 23.33° C | - | 0 hPa | - | 3.58 m/s, 161° | - | - |
| 1777967520 | 23.33° C | - | 0 hPa | - | 5.81 m/s, 154° | - | - |
| 1777967279 | 23.89° C | - | 0 hPa | - | 5.36 m/s, 154° | - | - |
| 1777967037 | 23.89° C | - | 0 hPa | - | 4.92 m/s, 133° | - | - |
| 1777966795 | 23.89° C | - | 0 hPa | - | 4.92 m/s, 143° | - | - |
| 1777966554 | 23.89° C | - | 0 hPa | - | 5.81 m/s, 156° | - | - |
* Rain since midnight (hover to see other rain measurements)
** Current wind speed in m/s (hover to see current wind gust speed)